Location: Middle Street
(51.7167°N, 0.0333°E)
Time: 19:47:10
(UTC+00:00)

NOSS 3-1 (A) - Pass Details

Date: 20 January 2021
Orbit: 735 x 1477 km, 63.4° (Epoch: 26 February)

Event Time Altitude Azimuth Distance (km) Brightness Sun altitude
Rises 19:53:34 0° 314° (NW) 3,867 7.3 -31.3°
Reaches altitude 10° 19:56:02 10° 313° (NW) 3,007 6.7 -31.7°
Maximum altitude 20:03:22 77° 229° (SW) 1,310 4.0 -32.8°
Enters shadow 20:04:19 69° 177° (S) 1,375 4.0 -32.9°
